Middletown, PA

6:36 PM EDT on October 21, 2017 (GMT -0400)
Harrisburg International

Weather History for KMDT - September, 2012

Change the Weather History Date:

Thursday, September 6, 2012

  Actual Average Record
Temperature  
Mean Temperature 76 °F 70 °F  
Max Temperature 84 °F 79 °F 96 °F (1983)
Min Temperature 68 °F 60 °F 46 °F (1988)
Degree Days  
Heating Degree Days 0 1  
Month to date heating degree days 0 1  
Since 1 July heating degree days 0 3  
Cooling Degree Days 11 5  
Month to date cooling degree days 69 36  
Year to date cooling degree days 1171 932  
Growing Degree Days 26 (Base 50)    
Moisture  
Dew Point 67 °F    
Average Humidity 76    
Maximum Humidity 90    
Minimum Humidity 62    
Precipitation  
Precipitation 0.00 in 0.12 in 2.59 in (2008)
Month to date precipitation 0.39 0.71  
Year to date precipitation 29.72 27.65  
Sea Level Pressure  
Sea Level Pressure 29.89 in    
Wind  
Wind Speed 4 mph (SSE)    
Max Wind Speed 13 mph    
Max Gust Speed 16 mph    
Visibility 10 miles    
Events      
T = Trace of Precipitation, MM = Missing Value Source: NWS Daily Summary

Daily Weather History Graph

Daily Weather History Graph

Search for Another Location

Airport or City:

Trip Planner

Search our weather history database for the weather conditions in past years. The results will help you decide how hot, cold, wet, or windy it might be!

Date:

Astronomy

Sep. 06, 2012 Rise Set
Actual Time 6:39 AM EDT 7:29 PM EDT
Civil Twilight 6:12 AM EDT 7:57 PM EDT
Nautical Twilight 5:39 AM EDT 8:30 PM EDT
Astronomical Twilight 5:05 AM EDT 9:03 PM EDT
Moon 10:38 PM EDT (9/6) 12:37 PM EDT (9/6)
Length of Visible Light 13h 45m
Length of Day
12h 50m
Waning Gibbous, 67% of the Moon is Illuminated
Sep 6
Waning Gibbous
Sep 8
Last Quarter
Sep 15
New
Sep 22
First Quarter
Sep 29
Full

Hourly Weather History & Observations

Time (EDT) Temp. Heat Index Dew Point Humidity Pressure Visibility Wind Dir Wind Speed Gust Speed Precip Events Conditions
12:56 AM 70.0 °F - 64.9 °F 84% 29.86 in 10.0 mi Calm Calm - N/A   Mostly Cloudy
1:56 AM 69.1 °F - 64.9 °F 87% 29.86 in 10.0 mi Calm Calm - N/A   Mostly Cloudy
2:56 AM 69.1 °F - 64.9 °F 87% 29.85 in 10.0 mi Calm Calm - N/A   Mostly Cloudy
3:56 AM 69.1 °F - 66.0 °F 90% 29.85 in 10.0 mi Calm Calm - N/A   Overcast
4:56 AM 69.1 °F - 64.9 °F 87% 29.86 in 10.0 mi Calm Calm - N/A   Overcast
5:56 AM 69.1 °F - 64.9 °F 87% 29.86 in 10.0 mi Calm Calm - N/A   Overcast
6:56 AM 70.0 °F - 66.0 °F 87% 29.87 in 10.0 mi Calm Calm - N/A   Mostly Cloudy
7:56 AM 69.1 °F - 64.9 °F 87% 29.88 in 10.0 mi North 3.5 mph - N/A   Overcast
8:56 AM 70.0 °F - 64.9 °F 84% 29.89 in 10.0 mi NE 3.5 mph - N/A   Mostly Cloudy
9:56 AM 73.0 °F - 66.0 °F 79% 29.91 in 10.0 mi Calm Calm - N/A   Overcast
10:24 AM 73.4 °F - 66.2 °F 78% 29.91 in 10.0 mi SSE 3.5 mph - N/A   Mostly Cloudy
10:47 AM 73.4 °F - 66.2 °F 78% 29.92 in 10.0 mi ESE 3.5 mph - N/A   Mostly Cloudy
10:56 AM 73.0 °F - 66.0 °F 79% 29.92 in 10.0 mi ESE 3.5 mph - N/A   Overcast
11:29 AM 75.2 °F - 64.4 °F 69% 29.91 in 10.0 mi SE 3.5 mph - N/A   Mostly Cloudy
11:56 AM 75.9 °F - 64.9 °F 69% 29.91 in 10.0 mi Calm Calm - N/A   Mostly Cloudy
12:56 PM 79.0 °F - 66.9 °F 66% 29.90 in 10.0 mi Calm Calm - N/A   Mostly Cloudy
1:13 PM 78.8 °F - 66.2 °F 65% 29.90 in 10.0 mi Calm Calm - N/A   Mostly Cloudy
1:36 PM 80.6 °F 82.7 °F 66.2 °F 61% 29.90 in 10.0 mi Calm Calm - N/A   Mostly Cloudy
1:56 PM 80.1 °F 82.1 °F 66.0 °F 62% 29.90 in 10.0 mi SSE 3.5 mph - N/A   Mostly Cloudy
2:56 PM 82.0 °F 84.9 °F 68.0 °F 62% 29.89 in 10.0 mi SE 4.6 mph - N/A   Mostly Cloudy
3:56 PM 82.9 °F 87.0 °F 70.0 °F 65% 29.87 in 10.0 mi SSE 6.9 mph - N/A   Scattered Clouds
4:56 PM 82.9 °F 87.0 °F 70.0 °F 65% 29.86 in 10.0 mi SE 6.9 mph - N/A   Scattered Clouds
5:56 PM 82.9 °F 87.0 °F 70.0 °F 65% 29.86 in 10.0 mi South 3.5 mph - N/A   Scattered Clouds
6:56 PM 80.1 °F 83.8 °F 72.0 °F 76% 29.87 in 9.0 mi South 3.5 mph - N/A   Scattered Clouds
7:56 PM 79.0 °F - 71.1 °F 77% 29.88 in 8.0 mi SSW 8.1 mph - N/A   Scattered Clouds
8:56 PM 77.0 °F - 72.0 °F 84% 29.88 in 8.0 mi SSW 9.2 mph - N/A   Partly Cloudy
9:56 PM 75.9 °F - 72.0 °F 87% 29.89 in 7.0 mi South 9.2 mph - N/A   Partly Cloudy
10:56 PM 75.0 °F - 71.1 °F 87% 29.90 in 6.0 mi South 10.4 mph - N/A   Mostly Cloudy
11:56 PM 75.2 °F - 69.8 °F 83% 29.91 in 7.0 mi Variable 3.5 mph - N/A   Scattered Clouds